Location: Forest
(37.3641°N, 79.2902°W)
Time: 07:08:26
(UTC+00:00)

Envisat - Pass Details

Date: 12 October 2024
Orbit: 761 x 763 km, 98.3° (Epoch: 08 November)

Event Time Altitude Azimuth Distance (km) Brightness Sun altitude
Rises 08:47:24 0° 7° (N) 3,232 6.5 -31.4°
Reaches altitude 10° 08:49:45 10° 2° (N) 2,302 5.6 -31.0°
Enters shadow 08:50:56 17° 358° (N) 1,855 5.1 -30.8°
